OAL117 LQSA-LGAV

Flight info

Callsign OAL117
Flight time 1h 7m
Altitude 37000
Route KUTAK DCT PERAN DCT POD DCT RETRA DCT RINAV DCT BONZI DCT BITLA N132 ROPOX
Aircraft A320/M-SDE3FGHIRWY/LB1

Departure

Time 2026-04-21 15:39
Airport Sarajevo International Airport (LQSA)

Arrival

Time 2026-04-21 16:46
Airport Athens Eleftherios Venizelos International Airport (LGAV)
Time Latitude Longitude Altitude Speed Heading
2026-04-21 15:29 43.82518 18.33693 1705 ft 0 kts 28°
2026-04-21 15:30 43.82502 18.33681 1708 ft 4 kts 28°
2026-04-21 15:30 43.82481 18.33664 1709 ft 4 kts 55°
2026-04-21 15:30 43.82471 18.33633 1709 ft 4 kts 81°
2026-04-21 15:31 43.82471 18.33600 1708 ft 4 kts 116°
2026-04-21 15:31 43.82476 18.33585 1707 ft 0 kts 118°
2026-04-21 15:34 43.82474 18.33590 1708 ft 3 kts 118°
2026-04-21 15:34 43.82454 18.33639 1709 ft 7 kts 119°
2026-04-21 15:34 43.82432 18.33699 1705 ft 7 kts 115°
2026-04-21 15:35 43.82410 18.33767 1706 ft 8 kts 115°
2026-04-21 15:35 43.82383 18.33837 1707 ft 9 kts 121°
2026-04-21 15:35 43.82352 18.33911 1708 ft 9 kts 118°
2026-04-21 15:35 43.82320 18.33995 1709 ft 10 kts 117°
2026-04-21 15:36 43.82286 18.34088 1710 ft 11 kts 117°
2026-04-21 15:36 43.82247 18.34189 1711 ft 12 kts 117°
2026-04-21 15:36 43.82206 18.34301 1710 ft 14 kts 117°
2026-04-21 15:36 43.82160 18.34422 1713 ft 15 kts 118°
2026-04-21 15:37 43.82110 18.34553 1714 ft 16 kts 119°
2026-04-21 15:37 43.82026 18.34625 1715 ft 11 kts 175°
2026-04-21 15:37 43.81965 18.34570 1716 ft 11 kts 231°
2026-04-21 15:37 43.81952 18.34508 1715 ft 1 kts 283°
2026-04-21 15:38 43.81958 18.34483 1714 ft 16 kts 290°
2026-04-21 15:38 43.82134 18.34022 1710 ft 89 kts 298°
2026-04-21 15:38 43.82515 18.33013 1695 ft 145 kts 298°
2026-04-21 15:38 43.83018 18.31618 1896 ft 170 kts 295°
2026-04-21 15:39 43.83626 18.30278 2675 ft 157 kts 324°
2026-04-21 15:39 43.84584 18.29957 3377 ft 142 kts 22°
2026-04-21 15:39 43.85336 18.30934 3439 ft 176 kts 62°
2026-04-21 15:39 43.85831 18.32654 3645 ft 206 kts 62°
2026-04-21 15:40 43.86719 18.34293 4178 ft 218 kts 47°
2026-04-21 15:40 43.87786 18.35805 4998 ft 220 kts 45°
2026-04-21 15:40 43.88851 18.37336 5853 ft 222 kts 46°
2026-04-21 15:40 43.89885 18.38937 6651 ft 225 kts 50°
2026-04-21 15:41 43.90592 18.40894 7340 ft 233 kts 79°
2026-04-21 15:41 43.90434 18.43130 8028 ft 240 kts 113°
2026-04-21 15:41 43.89389 18.45000 8512 ft 259 kts 147°
2026-04-21 15:41 43.87647 18.45862 8847 ft 278 kts 175°
2026-04-21 15:42 43.85676 18.46116 9445 ft 289 kts 177°
2026-04-21 15:42 43.83652 18.46368 10150 ft 296 kts 178°
2026-04-21 15:42 43.81530 18.46633 10391 ft 318 kts 177°
2026-04-21 15:42 43.79248 18.46925 10557 ft 341 kts 177°
2026-04-21 15:43 43.76836 18.47248 10975 ft 353 kts 177°
2026-04-21 15:43 43.74370 18.47588 11572 ft 359 kts 177°
2026-04-21 15:43 43.71863 18.47937 12197 ft 365 kts 177°
2026-04-21 15:43 43.69317 18.48290 12801 ft 370 kts 178°
2026-04-21 15:44 43.66740 18.48645 13407 ft 376 kts 178°
2026-04-21 15:44 43.64119 18.49005 14027 ft 381 kts 178°
2026-04-21 15:44 43.61470 18.49372 14628 ft 384 kts 178°
2026-04-21 15:44 43.58802 18.49741 15230 ft 386 kts 179°
2026-04-21 15:45 43.56120 18.50109 15833 ft 389 kts 179°
2026-04-21 15:45 43.53422 18.50479 16451 ft 390 kts 179°
2026-04-21 15:45 43.50716 18.50850 17089 ft 392 kts 180°
2026-04-21 15:45 43.47989 18.51223 17721 ft 395 kts 180°
2026-04-21 15:46 43.45251 18.51601 18366 ft 397 kts 180°
2026-04-21 15:46 43.42494 18.51979 18942 ft 399 kts 181°
2026-04-21 15:46 43.39724 18.52357 19500 ft 401 kts 181°
2026-04-21 15:46 43.36946 18.52734 20065 ft 403 kts 181°
2026-04-21 15:47 43.34144 18.53112 20631 ft 405 kts 181°
2026-04-21 15:47 43.31327 18.53492 21171 ft 408 kts 181°
2026-04-21 15:47 43.28493 18.53872 21686 ft 411 kts 181°
2026-04-21 15:47 43.25641 18.54254 22178 ft 413 kts 181°
2026-04-21 15:48 43.22765 18.54644 22687 ft 416 kts 181°
2026-04-21 15:48 43.19876 18.55035 23177 ft 419 kts 181°
2026-04-21 15:48 43.16966 18.55429 23625 ft 421 kts 180°
2026-04-21 15:48 43.14039 18.55827 23987 ft 425 kts 180°
2026-04-21 15:49 43.11106 18.56620 24310 ft 440 kts 164°
2026-04-21 15:49 43.08444 18.58800 24614 ft 457 kts 142°
2026-04-21 15:49 43.06436 18.62243 24910 ft 470 kts 120°
2026-04-21 15:49 43.05397 18.66491 25223 ft 476 kts 97°
2026-04-21 15:50 43.05368 18.71012 25537 ft 478 kts 85°
2026-04-21 15:50 43.05289 18.75568 25842 ft 483 kts 101°
2026-04-21 15:50 43.04168 18.79874 26162 ft 483 kts 122°
2026-04-21 15:50 43.02076 18.83405 26436 ft 477 kts 143°
2026-04-21 15:51 42.99476 18.86223 26725 ft 480 kts 143°
2026-04-21 15:51 42.97215 18.89624 27013 ft 489 kts 130°
2026-04-21 15:51 42.94982 18.93121 27305 ft 487 kts 142°
2026-04-21 15:51 42.92212 18.95700 27600 ft 480 kts 159°
2026-04-21 15:52 42.89147 18.97474 27884 ft 476 kts 168°
2026-04-21 15:52 42.85946 18.98355 28181 ft 468 kts 180°
2026-04-21 15:52 42.82700 18.98818 28478 ft 470 kts 181°
2026-04-21 15:52 42.79437 18.99259 28865 ft 471 kts 181°
2026-04-21 15:53 42.76179 18.99705 29286 ft 471 kts 181°
2026-04-21 15:53 42.72919 19.00010 29689 ft 468 kts 185°
2026-04-21 15:53 42.69672 19.00213 30104 ft 470 kts 182°
2026-04-21 15:53 42.66431 19.01143 30469 ft 484 kts 165°
2026-04-21 15:54 42.63404 19.03243 30939 ft 493 kts 152°
2026-04-21 15:54 42.60548 19.05797 31426 ft 492 kts 151°
2026-04-21 15:54 42.57711 19.08375 31915 ft 490 kts 151°
2026-04-21 15:54 42.54889 19.10960 32402 ft 488 kts 151°
2026-04-21 15:55 42.52079 19.13534 32859 ft 486 kts 151°
2026-04-21 15:55 42.49276 19.16092 33295 ft 485 kts 151°
2026-04-21 15:55 42.46476 19.18632 33742 ft 484 kts 151°
2026-04-21 15:55 42.43676 19.21160 34143 ft 482 kts 151°
2026-04-21 15:56 42.40887 19.23664 34496 ft 481 kts 153°
2026-04-21 15:56 42.37982 19.25835 34827 ft 473 kts 162°
2026-04-21 15:56 42.34943 19.27449 35138 ft 468 kts 166°
2026-04-21 15:56 42.31891 19.28969 35446 ft 468 kts 166°
2026-04-21 15:57 42.28842 19.30493 35745 ft 467 kts 165°
2026-04-21 15:57 42.25866 19.32296 36050 ft 473 kts 156°
2026-04-21 15:57 42.23099 19.34764 36335 ft 479 kts 145°
2026-04-21 15:57 42.20653 19.37836 36634 ft 484 kts 135°
2026-04-21 15:58 42.18575 19.41426 36905 ft 487 kts 128°
2026-04-21 15:58 42.16593 19.45136 36962 ft 491 kts 129°
2026-04-21 15:58 42.12556 19.52632 36961 ft 495 kts 129°
2026-04-21 15:59 42.08500 19.60143 36960 ft 496 kts 129°
2026-04-21 15:59 42.04431 19.67645 36961 ft 496 kts 129°
2026-04-21 16:00 42.00355 19.75144 36965 ft 497 kts 129°
2026-04-21 16:00 41.96011 19.82306 36963 ft 493 kts 136°
2026-04-21 16:01 41.91374 19.89126 36957 ft 494 kts 136°
2026-04-21 16:01 41.86706 19.95918 36963 ft 495 kts 136°
2026-04-21 16:02 41.82027 20.02722 36972 ft 496 kts 136°
2026-04-21 16:02 41.77638 20.09124 36970 ft 492 kts 136°
2026-04-21 16:03 41.72970 20.15917 36975 ft 501 kts 136°
2026-04-21 16:03 41.68468 20.22448 36967 ft 509 kts 135°
2026-04-21 16:04 41.63624 20.29444 36961 ft 516 kts 135°
2026-04-21 16:04 41.58726 20.36505 36955 ft 520 kts 135°
2026-04-21 16:05 41.53810 20.43610 36964 ft 521 kts 135°
2026-04-21 16:05 41.48854 20.50700 36956 ft 523 kts 136°
2026-04-21 16:06 41.44656 20.56592 36960 ft 522 kts 136°
2026-04-21 16:06 41.42220 20.60003 36948 ft 506 kts 136°
2026-04-21 16:06 41.39827 20.63361 36956 ft 495 kts 136°
2026-04-21 16:07 41.35105 20.69972 36957 ft 491 kts 136°
2026-04-21 16:07 41.30390 20.76547 36963 ft 490 kts 136°
2026-04-21 16:08 41.23300 20.86417 36970 ft 490 kts 136°
2026-04-21 16:09 41.18631 20.92930 36968 ft 490 kts 136°
2026-04-21 16:09 41.13920 20.99469 36958 ft 490 kts 136°
2026-04-21 16:10 41.09199 21.05997 36947 ft 490 kts 136°
2026-04-21 16:10 41.04476 21.12522 36937 ft 491 kts 136°
2026-04-21 16:11 40.99752 21.19042 36933 ft 491 kts 136°
2026-04-21 16:11 40.95016 21.25564 36937 ft 491 kts 136°
2026-04-21 16:12 40.90284 21.32064 36943 ft 490 kts 136°
2026-04-21 16:12 40.85177 21.38031 36939 ft 485 kts 148°
2026-04-21 16:13 40.79658 21.43159 36938 ft 485 kts 148°
2026-04-21 16:13 40.74142 21.48296 36930 ft 485 kts 148°
2026-04-21 16:14 40.68623 21.53424 36933 ft 485 kts 148°
2026-04-21 16:14 40.63203 21.58433 36925 ft 485 kts 148°
2026-04-21 16:15 40.57679 21.63532 36934 ft 485 kts 148°
2026-04-21 16:15 40.52121 21.68661 36937 ft 485 kts 148°
2026-04-21 16:16 40.46631 21.73720 36952 ft 485 kts 148°
2026-04-21 16:16 40.41106 21.78796 36953 ft 484 kts 148°
2026-04-21 16:17 40.35548 21.83890 36964 ft 484 kts 148°
2026-04-21 16:17 40.30022 21.88935 36963 ft 484 kts 148°
2026-04-21 16:18 40.24538 21.93939 36959 ft 484 kts 148°
2026-04-21 16:18 40.19016 21.98974 36955 ft 483 kts 148°
2026-04-21 16:19 40.13498 22.03995 36947 ft 483 kts 148°
2026-04-21 16:19 40.07983 22.09005 36940 ft 483 kts 148°
2026-04-21 16:20 40.02433 22.14028 36925 ft 482 kts 148°
2026-04-21 16:20 39.96917 22.19009 36921 ft 482 kts 148°
2026-04-21 16:21 39.91396 22.23985 36918 ft 482 kts 148°
2026-04-21 16:21 39.85978 22.29144 36919 ft 483 kts 144°
2026-04-21 16:22 39.80794 22.34731 36913 ft 484 kts 142°
2026-04-21 16:22 39.75656 22.40382 36911 ft 484 kts 143°
2026-04-21 16:23 39.70488 22.45890 36905 ft 483 kts 143°
2026-04-21 16:23 39.65210 22.51392 36915 ft 483 kts 144°
2026-04-21 16:24 39.59998 22.56813 36914 ft 483 kts 143°
2026-04-21 16:24 39.54729 22.62332 36912 ft 483 kts 143°
2026-04-21 16:25 39.49538 22.67781 36904 ft 483 kts 143°
2026-04-21 16:25 39.44305 22.73238 36895 ft 483 kts 143°
2026-04-21 16:26 39.39026 22.78719 36889 ft 483 kts 143°
2026-04-21 16:26 39.33825 22.84121 36886 ft 483 kts 143°
2026-04-21 16:27 39.28558 22.89596 36880 ft 483 kts 143°
2026-04-21 16:27 39.23362 22.94990 36884 ft 482 kts 143°
2026-04-21 16:28 39.18126 23.00398 36738 ft 482 kts 143°
2026-04-21 16:28 39.15476 23.03125 36473 ft 481 kts 143°
2026-04-21 16:28 39.12886 23.05781 36131 ft 482 kts 143°
2026-04-21 16:28 39.10264 23.08473 35653 ft 482 kts 143°
2026-04-21 16:29 39.07618 23.11197 35152 ft 482 kts 143°
2026-04-21 16:29 39.05029 23.13861 34671 ft 483 kts 143°
2026-04-21 16:29 39.02368 23.16593 34171 ft 483 kts 143°
2026-04-21 16:29 38.99768 23.19256 33377 ft 487 kts 143°
2026-04-21 16:30 38.97107 23.21978 32407 ft 491 kts 143°
2026-04-21 16:30 38.94423 23.24720 31469 ft 494 kts 143°
2026-04-21 16:30 38.91689 23.27515 30553 ft 497 kts 143°
2026-04-21 16:30 38.89020 23.30243 29637 ft 498 kts 143°
2026-04-21 16:31 38.86307 23.33009 28627 ft 498 kts 143°
2026-04-21 16:31 38.83588 23.35767 27648 ft 498 kts 143°
2026-04-21 16:31 38.80882 23.38507 26695 ft 491 kts 143°
2026-04-21 16:31 38.78203 23.41224 25767 ft 477 kts 143°
2026-04-21 16:32 38.75676 23.43793 24903 ft 465 kts 143°
2026-04-21 16:32 38.73195 23.46313 24057 ft 457 kts 143°
2026-04-21 16:32 38.70719 23.48823 23174 ft 451 kts 143°
2026-04-21 16:32 38.68246 23.51328 22294 ft 444 kts 143°
2026-04-21 16:33 38.65836 23.53766 21528 ft 439 kts 143°
2026-04-21 16:33 38.63453 23.56176 20767 ft 434 kts 143°
2026-04-21 16:33 38.61100 23.58554 19977 ft 428 kts 143°
2026-04-21 16:33 38.58780 23.60892 19202 ft 423 kts 144°
2026-04-21 16:34 38.56512 23.63176 18454 ft 418 kts 144°
2026-04-21 16:34 38.54245 23.65462 17633 ft 412 kts 143°
2026-04-21 16:34 38.52006 23.67719 16786 ft 406 kts 143°
2026-04-21 16:34 38.49804 23.69938 15966 ft 400 kts 143°
2026-04-21 16:35 38.47635 23.72119 15165 ft 394 kts 143°
2026-04-21 16:35 38.45492 23.74270 14391 ft 389 kts 143°
2026-04-21 16:35 38.43389 23.76381 13625 ft 379 kts 143°
2026-04-21 16:35 38.41339 23.78438 12774 ft 370 kts 143°
2026-04-21 16:36 38.39330 23.80451 11938 ft 362 kts 143°
2026-04-21 16:36 38.37367 23.82416 11165 ft 355 kts 143°
2026-04-21 16:36 38.35469 23.84317 10416 ft 348 kts 143°
2026-04-21 16:36 38.33584 23.86202 9656 ft 341 kts 143°
2026-04-21 16:37 38.31726 23.88058 8838 ft 336 kts 143°
2026-04-21 16:37 38.29899 23.89879 8047 ft 331 kts 143°
2026-04-21 16:37 38.28099 23.91671 7278 ft 327 kts 143°
2026-04-21 16:37 38.26319 23.93443 6524 ft 323 kts 143°
2026-04-21 16:38 38.24564 23.95193 5747 ft 319 kts 143°
2026-04-21 16:38 38.22830 23.96922 4976 ft 316 kts 144°
2026-04-21 16:38 38.21418 23.98334 4328 ft 314 kts 143°
2026-04-21 16:38 38.19709 24.00042 3560 ft 311 kts 144°
2026-04-21 16:39 38.18062 24.01682 3460 ft 285 kts 144°
2026-04-21 16:39 38.16582 24.03159 3544 ft 256 kts 144°
2026-04-21 16:39 38.15272 24.04465 3637 ft 228 kts 145°
2026-04-21 16:39 38.14073 24.05656 3773 ft 215 kts 145°
2026-04-21 16:40 38.12892 24.06821 3865 ft 214 kts 146°
2026-04-21 16:40 38.11651 24.07663 3871 ft 184 kts 166°
2026-04-21 16:40 38.10504 24.07935 3806 ft 157 kts 183°
2026-04-21 16:40 38.09464 24.07822 3759 ft 146 kts 197°
2026-04-21 16:41 38.08824 24.07575 3648 ft 142 kts 206°
2026-04-21 16:41 38.07709 24.06725 3439 ft 139 kts 220°
2026-04-21 16:41 38.06936 24.05987 3255 ft 139 kts 220°
2026-04-21 16:41 38.06166 24.05252 3085 ft 138 kts 220°
2026-04-21 16:42 38.05401 24.04521 2899 ft 137 kts 220°
2026-04-21 16:42 38.04634 24.03789 2726 ft 138 kts 220°
2026-04-21 16:42 38.03872 24.03061 2536 ft 136 kts 220°
2026-04-21 16:42 38.03124 24.02347 2360 ft 136 kts 219°
2026-04-21 16:43 38.02368 24.01625 2182 ft 136 kts 218°
2026-04-21 16:43 38.01612 24.00903 2001 ft 137 kts 218°
2026-04-21 16:43 38.00857 24.00182 1816 ft 135 kts 217°
2026-04-21 16:43 38.00102 23.99463 1645 ft 136 kts 217°
2026-04-21 16:44 37.99347 23.98742 1453 ft 136 kts 216°
2026-04-21 16:44 37.98595 23.98025 1279 ft 135 kts 217°
2026-04-21 16:44 37.98097 23.97550 1154 ft 136 kts 216°
2026-04-21 16:44 37.97094 23.96599 947 ft 134 kts 218°
2026-04-21 16:45 37.96459 23.96003 790 ft 135 kts 217°
2026-04-21 16:45 37.96057 23.95620 689 ft 135 kts 219°
2026-04-21 16:45 37.95359 23.94952 490 ft 135 kts 218°
2026-04-21 16:45 37.94632 23.94228 329 ft 133 kts 215°
2026-04-21 16:46 37.93905 23.93558 305 ft 121 kts 217°
2026-04-21 16:46 37.93368 23.93075 293 ft 42 kts 205°
2026-04-21 16:46 37.93299 23.93064 294 ft 0 kts 133°
2026-04-21 16:46 37.93273 23.93106 295 ft 4 kts 125°
2026-04-21 16:47 37.93263 23.93134 296 ft 9 kts 112°
2026-04-21 16:47 37.93244 23.93237 299 ft 10 kts 106°
2026-04-21 16:47 37.93237 23.93325 300 ft 11 kts 73°
2026-04-21 16:47 37.93297 23.93399 300 ft 13 kts 34°
2026-04-21 16:48 37.93367 23.93482 300 ft 14 kts 80°
2026-04-21 16:48 37.93339 23.93597 303 ft 15 kts 125°
2026-04-21 16:48 37.93271 23.93708 302 ft 17 kts 128°
2026-04-21 16:48 37.93196 23.93836 302 ft 19 kts 126°
2026-04-21 16:49 37.93111 23.93979 302 ft 21 kts 127°
2026-04-21 16:49 37.93017 23.94132 302 ft 22 kts 130°
2026-04-21 16:49 37.92951 23.94243 301 ft 17 kts 127°
2026-04-21 16:49 37.92899 23.94323 301 ft 1 kts 128°
2026-04-21 16:50 37.92885 23.94389 301 ft 13 kts 82°
2026-04-21 16:50 37.92950 23.94473 302 ft 15 kts 36°
2026-04-21 16:50 37.93039 23.94556 301 ft 17 kts 37°
2026-04-21 16:50 37.93140 23.94651 303 ft 19 kts 36°
2026-04-21 16:51 37.93253 23.94759 303 ft 21 kts 39°
2026-04-21 16:51 37.93363 23.94869 300 ft 21 kts 37°
2026-04-21 16:51 37.93451 23.94862 301 ft 14 kts 334°
2026-04-21 16:51 37.93537 23.94900 301 ft 14 kts 37°
2026-04-21 16:52 37.93624 23.94979 301 ft 16 kts 32°
2026-04-21 16:52 37.93716 23.95018 303 ft 11 kts 31°
2026-04-21 16:52 37.93762 23.95054 302 ft 0 kts 31°
2026-04-21 16:52 37.93764 23.95055 302 ft 0 kts 23°
2026-04-21 16:53 37.93768 23.95057 302 ft 0 kts 22°
2026-04-21 16:53 37.93774 23.95061 300 ft 2 kts 31°
2026-04-21 16:53 37.93794 23.95080 302 ft 5 kts 35°
2026-04-21 16:53 37.93825 23.95081 302 ft 3 kts 312°
2026-04-21 16:54 37.93828 23.95074 302 ft 2 kts 304°
2026-04-21 16:54 37.93837 23.95058 301 ft 0 kts 306°